Home > Weather > Port Angeles > Past weeks

Flag for U.S.A. Weather for the Past 2 Weeks in Port Angeles, Washington, U.S.A.

Now
40 °F

Clear.


Feels Like: 37 °F
Forecast: 45 / 49 °F
Wind: 5 mph from Southwest

Location: William R. Fairchild International Airport

Current Time: Feb 13, 2016 at 5:54:02 AM

Latest Report: Feb 13, 2016 at 4:53 AM


Visibility: 10 mi

Pressure: 30.21 "Hg

Humidity: 89%

Dew point: 37 °F

Location of Port AngelesLocation

Historic Weather in Port Angeles — Graph

°F

Port Angeles Temperature Yesterday

Maximum temperature yesterday: 55 °F (at 11:53 AM)
Minimum temperature yesterday: 44 °F (at 9:53 PM)
Average temperature yesterday: 49 °F

High & Low Weather Summary for the Past Weeks

 TemperatureHumidityPressure
High58 °F (Feb 5, 11:53 AM)100% (Feb 12, 5:53 AM)30.60 "Hg (Feb 12, 5:53 AM)
Low31 °F (Jan 31, 2:53 AM)44% (Feb 5, 11:53 AM)29.52 "Hg (Jan 29, 8:53 AM)
Average43 °F84%30.15 "Hg
* Reported Jan 29 3:53 AM — Feb 13 3:53 AM, Port Angeles, Weather by CustomWeather, © 2016

Note: Actual official high and low records may vary slightly from our data, if they occured in-between our weather recording intervals... More about our weather records

Advertising

Port Angeles Weather History for the Previous 24 Hours

 ConditionsComfort  
Time TempWeatherWind HumidityBarometerVisibility
3:53 AM
Sat, Feb 13
43 °FPassing clouds.7 mph82%30.20 "Hg10 mi
2:53 AM43 °FPassing clouds.13 mph86%30.18 "Hg10 mi
1:53 AM44 °FLight rain. Overcast.8 mph85%30.15 "Hg10 mi
12:53 AM45 °FLight rain. Overcast.7 mph82%30.14 "Hg6 mi
11:53 PM
Fri, Feb 12
45 °FLight rain. Mostly cloudy.7 mph90%30.14 "Hg10 mi
10:53 PM44 °FLight rain. Mostly cloudy.3 mph89%30.14 "Hg8 mi
9:53 PM44 °FPassing clouds.6 mph85%30.11 "Hg10 mi
8:53 PM47 °FClear.3 mph80%30.12 "Hg10 mi
7:53 PM47 °FClear.9 mph83%30.11 "Hg10 mi
6:53 PM47 °FPassing clouds.8 mph83%30.11 "Hg10 mi
5:53 PM50 °FLight rain. Mostly cloudy.6 mph77%30.11 "Hg10 mi
4:53 PM50 °FLight rain. Mostly cloudy.5 mph83%30.11 "Hg5 mi
3:53 PM54 °FPartly sunny.No wind67%30.09 "Hg9 mi
2:53 PM53 °FPartly sunny.7 mph72%30.08 "Hg9 mi
1:53 PM54 °FScattered clouds.12 mph72%30.06 "Hg9 mi
12:53 PM55 °FSunny.3 mph72%30.06 "Hg10 mi
11:53 AM55 °FSunny.9 mph74%30.06 "Hg10 mi
10:53 AM53 °FPassing clouds.10 mph89%30.05 "Hg10 mi
9:57 AM50 °FRain. Fog.7 mph96%30.07 "Hg2 mi
8:53 AM48 °FLight rain. Fog.No wind93%30.01 "Hg2 mi
7:59 AM47 °FHeavy rain. Fog.5 mph97%30.02 "Hg1 mi
6:53 AM47 °FFog.3 mph97%30.01 "Hg0 mi
5:53 AM47 °FFog.No wind100%30.01 "Hg0 mi
5:02 AM47 °FFog.3 mph97%30.01 "Hg1 mi
Weather by CustomWeather, © 2016

See weather overviewHow to use our weather pages